Regional Weather Roundup
Issued by NWS

Home | Current Version | Previous Version | Text Only | Print | Product List | Glossary Off
Versions: 1 2 3 4 5 6 7 8 9 10 11 12 13 14 15 16 17 18 19 20 21 22 23 24 25 26 27 28 29 30 31 32 33 34 35 36 37 38 39 40 41 42 43 44 45 46 47 48 49 50

000
ASUS43 KLSX 010459
RWRMO

WEATHER SUMMARY FOR MISSOURI
NATIONAL WEATHER SERVICE SPRINGFIELD MO
1200 AM CDT FRI AUG 01 2014

NOTE: "FAIR" INDICATES FEW OR NO CLOUDS BELOW 12,000 FEET WITH NO
       SIGNIFICANT WEATHER AND/OR OBSTRUCTIONS TO VISIBILITY.
       CURRENT SKY AND/OR WEATHER CONDITIONS ARE NOT AVAILABLE FOR
       CHILLICOTHE AND FARMINGTON.

MOZ001>031-035>038-043-044-053-054-010600-
...NORTHERN AND WESTERN MISSOURI...

CITY           SKY/WX    TMP DP  RH WIND       PRES   REMARKS
KANSAS CTY INT PTCLDY    67  57  70 SE7       30.07R
KANSAS C DTWN  CLEAR     73  59  61 CALM      30.05S
LEE`S SUMMIT   CLEAR     70  58  65 SE5       30.07S
ST JOSEPH      MOCLDY    69  64  84 CALM      30.05S
CHILLICOTHE      N/A     65  60  84 CALM      30.07S
KIRKSVILLE     PTCLDY    62  59  90 CALM      30.08R

$$
MOZ066>068-077>081-088>096-101>105-010600-
...SOUTHWEST MISSOURI...

CITY           SKY/WX    TMP DP  RH WIND       PRES   REMARKS
SPRINGFIELD    CLEAR     65  63  93 S5        30.08S
JOPLIN         CLEAR     68  66  93 CALM      30.09R

$$
MOZ032>034-039>042-045>050-055>058-069>072-010600-
...CENTRAL MISSOURI...

CITY           SKY/WX    TMP DP  RH WIND       PRES   REMARKS
COLUMBIA       CLEAR     67  57  70 E6        30.07R
JEFFERSON CITY MOCLDY    68  60  75 CALM      30.05R
ROLLA          CLEAR     66  60  81 S8        30.07R
SEDALIA        CLEAR     67  59  75 CALM      30.07S
OSAGE BEACH      N/A     64  57  77 S6        30.07R

$$
MOZ051-052-059>065-010600-
...EAST CENTRAL MISSOURI...

CITY           SKY/WX    TMP DP  RH WIND       PRES   REMARKS
ST LOUIS INTL  PTCLDY    76  61  59 S6        30.07R
SPIRIT OF STL  CLEAR     64  61  90 SW3       30.06R
ST CHARLES     CLEAR     67  62  84 CALM      30.05S

$$
MOZ072>076-082>087-097>100-106>115-010600-
...SOUTH CENTRAL AND SOUTHEAST MISSOURI...

CITY           SKY/WX    TMP DP  RH WIND       PRES   REMARKS
CAPE GIRARDEAU CLEAR     65  63  93 CALM      30.08S
FARMINGTON     CLEAR     64  63  94 S3        30.11R
POPLAR BLUFF   PTCLDY    65  61  87 CALM      30.07S FOG
WEST PLAINS    PTCLDY    64  62  93 S3        30.11S

$$



USA.gov is the U.S. government's official web portal to all federal, state and local government web resources and services.